Regional Weather Roundup
Issued by NWS State College, PA

Home | Current Version | Previous Version | Text Only | Print | Product List | Glossary On
Versions: 1 2 3 4 5 6 7 8 9 10 11 12 13 14 15 16 17 18 19 20 21 22 23 24 25 26 27 28 29 30 31 32 33 34 35 36 37 38 39 40 41 42 43 44 45 46 47 48 49 50
000
ASUS41 KCTP 050110
RWRCTP

REGIONAL WEATHER ROUNDUP
NATIONAL WEATHER SERVICE STATE COLLEGE PA
800 PM EST SUN DEC 04 2016

Note: "fair" indicates few or no clouds below 12,000 feet with no
significant weather and/or obstructions to visibility.

* = STATION THAT DOES NOT REPORT PRECIPITATION /E.G. RAIN...SNOW...ETC/
    THUNDER OR FOG.

PAZ002>004-007>009-013>016-020>023-029>032-050200-
WESTERN PENNSYLVANIA

CITY           SKY/WX    TMP DP  RH WIND       PRES   REMARKS
ERIE           CLOUDY    39  28  64 E10G18    29.94F
MEADVILLE      CLOUDY    36  27  69 E8        29.90F
FRANKLIN*        N/A     36  25  64 SE12G17   29.94F
NEW CASTLE     CLOUDY    39  28  64 VRB5      29.94F
BEAVER COUNTY  NOT AVBL
BUTLER*        CLOUDY    37  27  65 E12       29.94F
PITTSBURGH INT LGT RAIN  42  29  59 E9        29.91F
PITTSBURGH     CLOUDY    40  25  55 SE10      29.90F
INDIANA*       CLOUDY    37  28  70 SE12      29.97F
LATROBE        PTCLDY    39  27  60 SE9       29.96
WASHINGTON CO* CLOUDY    39  27  60 SE7       29.92F
$$

PAZ004>006-010>012-017>019-024>028-033>037-041-042-045-046-049>053-050200-
CENTRAL PENNSYLVANIA

CITY           SKY/WX    TMP DP  RH WIND       PRES   REMARKS
BRADFORD       CLOUDY    32  27  81 SE13      29.97F
DUBOIS         CLOUDY    35  26  69 SE14      29.96F
CLEARFIELD     CLOUDY    36  28  73 E6        30.02F
JOHNSTOWN      CLOUDY    33  26  75 SE8G23    29.96F
ALTOONA        MOCLDY    37  28  70 S9        30.04F
STATE COLLEGE  PTCLDY    37  28  70 SE5       30.06F
WILLIAMSPORT   CLOUDY    40  26  57 E9        30.11F
SELINSGROVE    CLOUDY    37  32  82 CALM      30.12F
FT INDIANTOWN  CLOUDY    37  29  71 NE3       30.11F
CAPITAL CITY   CLOUDY    42  29  59 S3        30.14F
HARRISBURG     CLOUDY    42  33  70 S5        30.13F
YORK           CLOUDY    40  31  70 SE5       30.13F
$$

PAZ038>040-043-044-047-048-054-055-060>062-067>071-050200-
EASTERN PENNSYLVANIA

CITY           SKY/WX    TMP DP  RH WIND       PRES   REMARKS
SCRANTON       CLOUDY    36  24  62 E3        30.12F
MOUNT POCONO   CLOUDY    30  23  75 E5        30.09F
ALLENTOWN      CLOUDY    41  23  48 CALM      30.16S
QUAKERTOWN*    CLOUDY    36  28  75 CALM      30.16F
READING        CLOUDY    40  27  59 CALM      30.15F
LANCASTER      CLOUDY    38  33  82 E5        30.14F
COATESVILLE    CLOUDY    39  30  70 CALM      30.16F
POTTSTOWN      CLOUDY    38  29  70 SW3       30.17F
BLUE BELL      CLOUDY    36  32  87 CALM      30.16F
DOYLESTOWN     MOCLDY    41  27  57 CALM      30.16F
WILLOW GROVE   NOT AVBL
NORTH PHILA    CLOUDY    42  28  57 CALM      30.19F
PHILADELPHIA   CLOUDY    44  29  55 SW3       30.18F
$$




USA.gov is the U.S. government's official web portal to all federal, state and local government web resources and services.